C/2017 O1

Japanese version
Home page
Updated on August 6, 2017

---------------------------------------------------------------------

* Profile

Discovery Date July 19, 2017
Magnitude 15.3 mag
Discoverer All-Sky Automated Survey for Supernovae (ASASSN)

* Pictures

* Orbital Elements

T 2017 Oct. 14.27907 TT                                 MPCW
q   1.5063822            (2000.0)            P               Q
                   Peri.   20.29687     +0.72665409     -0.62742507
                   Node    25.94969     +0.50830498     +0.21698799
e   1.0            Incl.   39.75600     +0.46216867     +0.74783286
From 105 observations 2017 July 19-24.

* Finding Charts

* Magnitudes Graph

        m1 = 6.5 + 5 log d + 10.0 log r

---------------------------------------------------------------------

The orbital elements are published on M.P.E.C. 2017-O45.
The charts are made with StellaNavigator Ver.10 (AstroArts).
The magnitudes graphs are made with Comet for Windows.

---------------------------------------------------------------------

Copyright(C) Seiichi Yoshida (comet@aerith.net). All rights reserved.